GW6753 Weather Reports


time (UTC)temp
F
wind
direction
speed
knots
gust
knots
rain 1hr
in
rain 24hr
in
rain mn
in
humidity
%
barometer
mb
20260507230122 55 307 6.1 11.3 0.00 0.00 0.00 43 878.0
20260507220153 54 304 4.3 12.2 0.00 0.00 0.00 46 878.3
20260507210127 53 280 5.2 9.6 0.00 0.00 0.00 48 878.4
20260507200212 51 265 4.3 8.7 0.00 0.00 0.00 55 878.5
20260507190122 50 247 2.6 7.8 0.00 0.00 0.00 64 878.2
20260507180126 47 240 4.3 8.7 0.00 0.00 0.00 70 878.1
20260507170118 44 273 3.5 8.7 0.00 0.00 0.00 75 877.9
20260507160121 42 257 3.5 12.2 0.00 0.00 0.00 79 877.6
20260507150116 40 261 5.2 12.2 0.00 0.00 0.00 82 877.1
20260507140125 40 273 7.0 13.9 0.00 0.00 0.00 82 876.7
20260507120110 38 271 4.3 12.2 0.00 0.00 0.00 86 876.3
20260507110106 38 291 4.3 12.2 0.00 0.00 0.00 84 876.6
20260507100124 41 305 5.2 14.8 0.00 0.00 0.00 76 876.9
20260507090116 42 301 3.5 13.9 0.00 0.00 0.00 75 877.1
20260507080105 43 227 5.2 10.4 0.00 0.00 0.00 73 877.2
20260507070135 44 256 1.7 9.6 0.00 0.00 0.00 71 877.5
20260507050149 47 277 6.1 12.2 0.00 0.00 0.00 68 878.0
20260507040128 49 284 5.2 16.5 0.00 0.00 0.00 65 878.1
20260507030148 51 230 5.2 13.0 0.00 0.00 0.00 64 877.7
20260507020111 53 280 6.1 14.8 0.00 0.00 0.00 60 877.8
20260507010148 56 249 5.2 16.5 0.00 0.00 0.00 54 878.0
20260507000144 57 278 7.8 14.8 0.00 0.00 0.00 53 878.1